Location: Unspecified
(48.8582°N, 2.2947°E)
Time: 16:01:12
(UTC+02:00)

Daily predictions for brighter satellites

Satellite Brightness Start Highest point End
(mag) Time Altitude Azimuth Time Altitude Azimuth Time Altitude Azimuth
Cosmos 2150 Rocket 4.3 21:02:51 10° NNW 21:07:52 50° ENE 21:12:52 10° SE
Cosmos 220 Rocket 3.9 21:05:26 10° NNW 21:09:42 75° ENE 21:13:54 10° SSE
Cosmos 1934 Rocket 4.0 21:04:16 10° S 21:10:25 80° E 21:16:42 10° N
ERS-1 Rocket 3.6 21:10:03 10° SE 21:14:40 38° ENE 21:19:18 10° N
Resurs 1-3 4.5 21:10:50 10° S 21:15:07 53° W 21:19:27 10° NNW
FENGYUN 3A 3.7 21:09:51 10° SSE 21:15:13 88° ENE 21:20:37 10° NNW
SPOT 5 4.3 21:13:10 10° ESE 21:16:49 21° ENE 21:20:20 10° NNE
Cosmos 2263 Rocket 4.1 21:13:58 10° N 21:17:17 16° NE 21:20:35 10° ENE
Cosmos 1656 4.1 21:12:20 10° S 21:17:28 38° ESE 21:22:33 10° NE
USA 215 4.1 21:11:22 10° E 21:17:33 46° N 21:23:43 10° WNW
NOSS 7 (D) 4.3 21:16:44 10° SSW 21:20:05 66° SE 21:23:33 10° NE
Cosmos 2227 Rocket 2.9 21:15:54 10° NW 21:21:28 56° WSW 21:26:58 10° S
H-2A R/B 2.8 21:18:00 10° SSE 21:21:55 88° W 21:25:54 10° NNW
Cosmos 1898 Rocket 3.6 21:19:30 10° NNW 21:24:50 71° ENE 21:30:06 10° SSE
Cosmos 1975 3.0 21:24:08 10° S 21:28:08 54° E 21:32:10 10° NNE
Meteor 1-12 Rocket 4.3 21:23:53 10° S 21:29:34 66° E 21:35:24 10° NNE
Lacrosse 5 rocket 3.0 21:27:21 10° WNW 21:30:27 25° SW 21:33:28 10° S
SJ-11-01 4.5 21:27:49 10° SSE 21:32:24 55° ENE 21:36:59 10° N
Helios 1B rocket 4.1 21:29:48 10° N 21:33:40 39° WNW 21:37:30 10° SW
Cosmos 2297 Rocket 2.8 21:31:03 10° NW 21:36:36 58° WSW 21:42:08 10° S
Resurs 01 Rocket 4.0 21:35:27 10° SSW 21:39:09 25° W 21:42:52 10° NW
Cosmos 468 Rocket 4.2 21:37:57 10° S 21:42:49 45° ESE 21:47:42 10° NE
CZ-2D R/B 4.4 21:40:09 10° S 21:43:53 46° W 21:47:40 10° NNW
Cosmos 1500 3.1 21:48:49 10° S 21:52:32 65° E 21:56:19 10° NNE
Cosmos 1814 Rocket 4.2 21:49:03 10° S 21:54:10 49° ESE 21:59:16 10° NNE
ALOS 3.7 21:50:17 10° SSW 21:54:38 38° W 21:59:01 10° NNW
Cosmos 2173 Rocket 4.2 21:49:20 10° SSE 21:55:28 53° E 22:01:35 10° NNE
Cosmos 1340 2.9 21:54:33 10° N 21:58:15 50° ENE 22:00:44 19° SE
BREEZE-M DEB (TANK) 3.7 21:56:01 10° WNW 21:59:20 75° SSW 22:06:42 16° ESE
CZ-4 DEB 2.9 21:56:16 10° S 21:59:23 74° WSW 22:02:34 10° NNW
YAOGAN 6 3.7 21:58:15 20° ESE 21:59:55 29° ENE 22:03:12 10° N
Cosmos 967 Rocket 4.5 21:56:59 10° NW 22:03:24 83° NE 22:08:16 18° SE
SL-24 R/B - RUBIN 2 4.4 21:57:58 10° SSW 22:04:00 79° SE 22:10:38 10° NE
ASTEX 1 4.1 21:59:54 10° NNE 22:04:31 35° E 22:07:29 19° SE
Cosmos 1726 Rocket 4.3 22:02:04 18° SE 22:04:38 33° E 22:08:36 10° NNE
Cosmos 1939 Rocket 2.9 22:01:15 12° SSE 22:05:05 85° ENE 22:09:17 10° NNW
Cosmos 2100 Rocket 3.9 22:04:06 10° S 22:10:20 72° E 22:16:32 10° NNE
Cosmos 1825 Rocket 3.5 22:10:21 10° N 22:14:49 86° E 22:18:15 16° S
Tsikada Rocket 4.4 22:09:43 10° N 22:15:57 48° ENE 22:19:54 22° SE
Cosmos 1697 Rocket 2.6 22:10:33 10° SSW 22:16:12 78° ESE 22:21:52 10° NNE
Cosmos 405 Rocket 4.2 22:14:22 10° NNE 22:17:13 20° ENE 22:17:42 20° ENE
Cosmos 2061 Rocket 3.9 22:13:32 10° S 22:19:49 77° E 22:26:04 10° NNE
Iridium 4 Rocket 4.5 22:17:19 10° NNW 22:22:13 45° W 22:26:40 10° SSW
Cosmos 1953 Rocket 3.5 22:21:08 10° N 22:25:36 83° ENE 22:28:22 23° SSE
SL-16 R/B 3.2 22:26:02 24° ESE 22:26:18 24° ESE 22:30:46 10° NE
Cosmos 1937 Rocket 4.2 22:21:43 10° NNW 22:26:50 52° WSW 22:31:28 13° S
Envisat 3.2 22:22:47 13° S 22:27:23 70° WSW 22:32:30 10° NNW
RESURS DK-1 3.6 22:25:03 10° NW 22:28:53 37° WSW 22:31:47 16° S
H-2A R/B 2.0 22:29:20 24° S 22:31:48 79° WSW 22:35:59 10° NNW
Cosmos 1743 2.8 22:27:54 10° SSW 22:31:50 81° WNW 22:35:46 10° N
ARGOS 3.4 22:30:17 28° SE 22:32:53 52° ENE 22:38:07 10° N
SL-08 RB Rocket 4.3 22:33:18 32° ESE 22:34:50 42° ENE 22:39:12 10° N
Cosmos 1980 Rocket 2.1 22:33:57 10° SSW 22:39:36 75° ESE 22:45:19 10° NNE
CZ-4B R/B 4.1 22:35:52 10° NNE 22:40:08 32° E 22:40:19 32° ESE
Cosmos 1459 Rocket 4.1 22:34:07 10° SSW 22:40:10 76° W 22:46:20 10° N
Cosmos 2228 3.4 22:39:57 39° ESE 22:40:25 41° E 22:44:27 10° NNE
Cosmos 2360 Rocket 4.3 22:43:12 10° ENE 22:43:12 10° ENE 22:43:19 10° ENE
Cosmos 1725 Rocket 4.0 22:39:21 22° SSE 22:43:22 60° E 22:49:31 10° NNE
Tiangong 1 3.4 22:41:46 10° WSW 22:42:56 14° SW 22:42:56 14° SW
Cosmos 1758 Rocket 3.6 22:39:53 10° NNW 22:44:15 75° W 22:46:23 29° S
Lacrosse 5 3.3 22:40:25 10° WNW 22:44:42 28° SW 22:47:16 18° S
MetOp-B 4.1 22:42:43 26° SSE 22:45:53 84° WSW 22:51:18 10° NNW
H-2A R/B 2.7 22:44:55 31° E 22:46:11 36° ENE 22:50:40 10° N
deb Chang Zheng 4 3.6 22:44:16 10° NNE 22:48:46 86° WNW 22:52:12 17° SSW
GP-B 4.4 22:49:01 10° NNE 22:52:22 25° ENE 22:52:22 25° ENE
ERS-1 Rocket 4.5 22:49:00 10° SSW 22:53:29 33° W 22:58:01 10° NNW
SPOT 5 3.3 22:51:36 24° S 22:54:32 61° WSW 22:59:15 10° NNW
Cosmos 1842 3.6 22:54:50 10° NNW 22:58:42 61° W 22:59:52 40° SSW
Cosmos 836 Rocket 4.5 22:56:19 29° S 22:58:59 64° ESE 23:04:16 10° NNE
USA 215 3.3 22:56:42 31° ESE 23:00:09 77° NNE 23:06:42 10° NW
BREEZE-M DEB (TANK) 3.3 22:50:20 10° WSW 23:00:35 52° S 23:01:33 44° SE
Cosmos 332 Rocket 4.4 23:01:17 38° E 23:01:17 38° E 23:05:20 10° NE
Cosmos 2263 Rocket 2.3 22:56:55 10° NNW 23:02:27 59° ENE 23:04:05 42° ESE
Meteor 2-5 Rocket 4.1 22:58:23 10° N 23:04:10 51° ENE 23:05:44 41° ESE
Landsat 7 4.0 23:03:26 48° ESE 23:04:17 56° ENE 23:08:58 10° N
Cosmos 2098 Rocket 3.9 22:58:30 15° S 23:04:20 89° WNW 23:09:49 10° N
SPOT 1/Viking Rocket 3.5 23:03:18 38° S 23:05:22 83° WSW 23:10:37 10° NNW
Cosmos 1763 Rocket 3.6 23:02:14 10° SSW 23:07:19 73° WNW 23:12:25 10° NNE
Cosmos 2233 Rocket 4.1 23:05:29 40° SSE 23:07:29 57° E 23:13:37 10° NNE
Cosmos 1707 3.9 23:04:23 10° N 23:07:22 31° NE 23:07:22 31° NE
Meteor 1-15 Rocket 4.2 23:06:21 27° S 23:09:43 83° E 23:15:37 10° NNE
Cosmos 2322 Rocket 2.2 23:11:44 47° SSE 23:12:54 57° ESE 23:18:25 10° NE
Cosmos 1125 Rocket 3.7 23:07:59 10° NNW 23:13:09 66° WSW 23:14:48 42° S
PSLV R/B 4.5 23:13:20 36° W 23:13:20 36° W 23:16:06 10° NNW
Cosmos 2058 Rocket 3.4 23:12:01 30° SSW 23:14:07 66° WNW 23:18:38 10° N
Cosmos 1666 3.4 23:16:03 39° SW 23:17:04 52° WNW 23:20:49 10° N
Terra 1.9 23:19:14 54° E 23:19:36 56° ENE 23:24:16 10° N
Meteor 1-24 Rocket 4.4 23:14:35 10° N 23:20:21 43° ENE 23:21:24 40° E
CZ-4 R/B 3.8 23:17:23 10° NNE 23:22:03 61° E 23:22:03 61° E
Meteor 2-9 Rocket 4.4 23:21:32 23° SSW 23:24:59 67° WNW 23:30:22 10° N
Cosmos 2360 4.4 23:21:01 10° SW 23:26:43 72° WNW 23:32:29 10° NNE
CARTOSAT-1 3.6 23:30:17 68° NE 23:30:17 68° NE 23:34:25 10° N
Cosmos 841 Rocket 4.1 23:25:33 10° SW 23:30:40 55° WNW 23:35:49 10° NNE
DELTA 2 DEB (DPAF) 4.0 23:34:41 88° SSW 23:34:43 89° WSW 23:39:15 10° NNW
Cosmos 1375 Rocket 4.4 23:36:27 27° SSW 23:40:19 77° SE 23:46:56 10° NE
Cosmos 540 Rocket 3.3 23:43:12 80° S 23:43:28 85° ESE 23:48:39 10° NNE
Cosmos 1441 Rocket 4.3 23:40:36 10° N 23:43:22 40° NNE 23:43:22 40° NNE
Spot 4 3.8 23:47:29 73° NE 23:47:29 73° NE 23:52:06 10° N
Cosmos 2278 Rocket 3.8 23:46:55 10° N 23:51:25 23° NE 23:53:03 21° ENE
Cosmos 1812 Rocket 3.9 23:52:39 62° N 23:52:39 62° N 23:56:21 10° N
Genesis I 4.2 23:49:15 10° NW 23:52:07 46° NW 23:52:07 46° NW
Cosmos 1464 Rocket 4.0 23:52:56 59° ESE 23:53:22 60° E 23:59:37 10° NNE
Cosmos 405 Rocket 4.1 23:49:59 10° NNW 23:52:57 33° WNW 23:52:57 33° WNW
